Regional Weather Roundup
Issued by NWS

Home | Current Version | Previous Version | Text Only | Print | Product List | Glossary On
Versions: 1 2 3 4 5 6 7 8 9 10 11 12 13 14 15 16 17 18 19 20 21 22 23 24 25 26 27 28 29 30 31 32 33 34 35 36 37 38 39 40 41 42 43 44 45 46 47 48 49 50
000
ASUS45 KTFX 011010
RWRMT
MONTANA REGIONAL WEATHER ROUNDUP
NATIONAL WEATHER SERVICE GREAT FALLS MT
400 AM MDT SAT AUG 01 2015

NOTE: "FAIR" INDICATES FEW OR NO CLOUDS BELOW 12000 FEET WITH NO
SIGNIFICANT WEATHER AND/OR OBSTRUCTIONS TO VISIBILITY.

MTZ001>007-043-011100-
WEST OF THE DIVIDE

CITY           SKY/WX    TMP DP  RH WIND       PRES   REMARKS
KALISPELL      SUNNY     47  35  63 CALM      30.01S
MISSOULA       CLEAR     61  36  39 CALM      30.09S
BUTTE          CLEAR     48  37  65 S3        30.25S
MULLAN PASS    CLEAR     69  21  16 VRB5      30.23S
DEER LODGE       N/A     50  37  62 CALM      30.22S
EUREKA           N/A     57  36  44 CALM      29.99S
HAMILTON         N/A     66  30  26 S12       30.10S
LIBBY            N/A     50  34  53 CALM      30.01R
PLAINS           N/A     54  38  54 CALM      30.03S
RONAN            N/A     53  42  66 CALM      30.07S
THOMPSON FALLS   N/A     52  31  44 CALM      30.06S
$$

MTZ008-052>055-011100-
SOUTHWEST MONTANA

CITY           SKY/WX    TMP DP  RH WIND       PRES   REMARKS
BOZEMAN        CLEAR     51  41  68 SE9       30.17S
DILLON         PTCLDY    52  36  54 S14       30.22S
W YELLOWSTONE  CLEAR     36  34  93 CALM      30.35S
THREE FORKS      N/A     49  30  48 CALM      30.13F
TWIN BRIDGES     N/A     50  37  60 SE2       30.18S
$$

MTZ009-010-012-014-046-048-049-054-011100-
EAST SLOPES AND CENTRAL MONTANA

CITY           SKY/WX    TMP DP  RH WIND       PRES   REMARKS
CUT BANK       CLEAR     61  31  32 W3        30.03S
GREAT FALLS    CLEAR     63  33  32 SW13      30.04S
MALMSTROM AFB  CLEAR     59  39  47 SW6       30.03F
HELENA         CLEAR     59  37  44 CALM      30.12R
CONRAD           N/A     53  40  61 CALM      30.04F
$$

MTZ011-013-016-021-045-047-050-051-011100-
NORTH CENTRAL MONTANA

CITY           SKY/WX    TMP DP  RH WIND       PRES   REMARKS
HAVRE          CLEAR     55  47  74 CALM      29.93F
LEWISTOWN      CLEAR     54  40  59 SE6       30.08F
CHINOOK          N/A     59  48  67 CALM      29.92F
FORT BENTON      N/A     61  43  51 S3        30.00S
$$

MTZ017>020-022>027-061-062-011100-
NORTHEAST MONTANA

CITY           SKY/WX    TMP DP  RH WIND       PRES   REMARKS
GLASGOW        CLEAR     58  50  75 E9        29.95F
JORDAN           N/A     52  44  74 W5        29.98F
SIDNEY         CLEAR     59  52  77 N5        29.94F
WOLF POINT     CLEAR     57  48  72 NE3       29.96F
MALTA            N/A     54  48  80 CALM      29.92F
PLENTYWOOD       N/A     63  48  59 E3        29.98F
POPLAR           N/A     59  52  77 CALM      29.96S
SCOBEY           N/A     59  45  59 CALM      29.98F
$$

MTZ028>42-056>058-011100-
SOUTHCENTRAL AND SOUTHEAST MONTANA

CITY           SKY/WX    TMP DP  RH WIND       PRES   REMARKS
BAKER          CLEAR     60  48  64 CALM      30.00S
BILLINGS       CLEAR     65  38  36 SW13      30.09F
LIVINGSTON     CLEAR     50  39  66 W3        30.17S
MILES CITY     CLEAR     60  43  53 W9        29.99S
FORSYTH          N/A     66  39  37 CALM      30.00F
LAUREL           N/A     56  36  47 SW5       30.07F
ROUNDUP          N/A     57  41  55 S8        29.98F
$$

REGIONAL REPORTS...DAKOTAS

CITY           SKY/WX    TMP DP  RH WIND       PRES   REMARKS
WILLISTON      CLEAR     61  53  75 N6        29.96F
MINOT          MOCLDY    56  52  86 CALM      29.98F
DICKINSON      CLEAR     54  49  83 E7        29.95F
BEACH          FAIR      52  48  87 CALM      29.96F
CROSBY         FAIR      48  48 100 NE5       29.98F
BISMARCK       PTCLDY    58  55  90 NE7       30.00F
GRAND FORKS    CLEAR     55  51  86 W6        29.96R
FARGO          PTCLDY    59  55  87 SW3       29.97F
BUFFALO SD       N/A     64  50  60 W8        29.95S
RAPID CITY     PTCLDY    64  56  75 NE8       30.04F
$$

REGIONAL REPORTS...WYOMING/IDAHO/WASHINGTON

CITY           SKY/WX    TMP DP  RH WIND       PRES   REMARKS
GILLETTE       CLEAR     64  49  57 S5        30.10F
SHERIDAN       CLEAR     70  38  31 NW12      30.10S
BUFFALO WY     CLEAR     68  36  30 W12       30.16F
CODY           CLEAR     66  30  26 SW6       30.20S
YELLOWSTONE LA   N/A     39  29  67 NW3       30.44S
IDAHO FALLS    CLEAR     51  43  74 N7        30.18F
SALMON         CLEAR     52  39  62 CALM      30.17S
BOISE          CLEAR     74  36  25 SE6       29.99S
SPOKANE        CLEAR     70  23  17 S9        29.95F
$$

REGIONAL REPORTS...ALBERTA

CITY           SKY/WX    TMP DP  RH WIND       PRES   REMARKS
EDMONTON       CLEAR     59  50  72 W3        29.93F
CALGARY        PTCLDY    61  50  67 N9        30.00S
LETHBRIDGE     CLEAR     54  41  62 SW10      29.96S
MEDICINE HAT   CLEAR     61  45  55 SW10      29.88S
CARDSTON         N/A     63  34  34 SW12        N/A
MILK RIVER       N/A     55  37  50 NW12        N/A
ONEFOUR          N/A     59  43  55 E10         N/A
$$

REGIONAL REPORTS...SASKATCHEWAN

CITY           SKY/WX    TMP DP  RH WIND       PRES   REMARKS
SWIFT CURRENT  CLEAR     59  52  77 S10       29.92F
REGINA         CLEAR     54  50  87 S9        29.95F
SASKATOON      MOCLDY    54  52  94 SW5       29.92S
CYPRESS HILLS    N/A     63  39  42 S7          N/A
VAL MARIE        N/A     54  50  87 E6          N/A
ROCKGLEN         N/A     55  48  76 SE5         N/A
ASSINIBOIA       N/A     50  50 100 CALM        N/A
$$


USA.gov is the U.S. government's official web portal to all federal, state and local government web resources and services.